This is the latest recevied weather packets stored in our database for station/object SQ9SMC-13. If no packets are shown the sender has not sent any weather packets the latest 1 day(s).
| Time | Temp. | Humidity | Pressure | Rain* | Wind** | Luminosity | Snow |
|---|---|---|---|---|---|---|---|
| 1778057704 | 21.67° C | 51% | 1008.3 hPa | 0 mm | - | 506 W/m² | - |
| 1778056503 | 21.11° C | 53% | 1008.4 hPa | 0 mm | - | 556 W/m² | - |
| 1778055605 | 20.56° C | 54% | 1008.3 hPa | 0 mm | - | 523 W/m² | - |
| 1778054703 | 20° C | 55% | 1008.4 hPa | 0 mm | - | 483 W/m² | - |
| 1778053506 | 20° C | 56% | 1008.5 hPa | 0 mm | - | 454 W/m² | - |
| 1778053205 | 20° C | 56% | 1008.3 hPa | 0 mm | - | 439 W/m² | - |
| 1778052303 | 19.44° C | 57% | 1008.4 hPa | 0 mm | - | 401 W/m² | - |
| 1778049903 | 17.78° C | 61% | 1008.3 hPa | 0 mm | - | 308 W/m² | - |
| 1778049303 | 17.22° C | 62% | 1008.1 hPa | 0 mm | - | 285 W/m² | - |
| 1778048406 | 17.22° C | 62% | 1007.7 hPa | 0 mm | - | 249 W/m² | - |
| 1778048104 | 17.22° C | 62% | 1007.8 hPa | 0 mm | - | 239 W/m² | - |
| 1778046603 | 16.67° C | 64% | 1007.9 hPa | 0 mm | - | 92 W/m² | - |
| 1778046006 | 16.11° C | 65% | 1007.9 hPa | 0 mm | - | 145 W/m² | - |
| 1778045704 | 16.11° C | 65% | 1007.9 hPa | 0 mm | - | 161 W/m² | - |
| 1778044204 | 16.11° C | 65% | 1007.8 hPa | 0 mm | - | 120 W/m² | - |
| 1778043903 | 16.11° C | 65% | 1007.7 hPa | 0 mm | - | 122 W/m² | - |
| 1778043303 | 15.56° C | 66% | 1007.7 hPa | 0 mm | - | 118 W/m² | - |
| 1778042104 | 15° C | 66% | 1007.8 hPa | 0 mm | - | 69 W/m² | - |
| 1778040905 | 14.44° C | 68% | 1007.9 hPa | 0 mm | - | 34 W/m² | - |
| 1778040604 | 14.44° C | 68% | 1007.9 hPa | 0 mm | - | 30 W/m² | - |
| 1778039704 | 14.44° C | 66% | 1007.8 hPa | 0 mm | - | 15 W/m² | - |
| 1778039104 | 14.44° C | 67% | 1008 hPa | 0 mm | - | 14 W/m² | - |
| 1778038503 | 13.33° C | 69% | 1007.8 hPa | 0 mm | - | 11 W/m² | - |
| 1778037903 | 12.78° C | 71% | 1008 hPa | 0 mm | - | 7 W/m² | - |
| 1778037303 | 12.22° C | 73% | 1007.9 hPa | 0 mm | - | 3 W/m² | - |
* Rain latest hour (hover to see other rain measurements)
** Current wind speed in m/s (hover to see current wind gust speed)